Simultaneous Nadir Overpasses (SNOs) Predictions

Prediction of SNOs between AQUA and GOES-15 Satellite Orbit:

Table of predicted SNOs for the next 14.0 days since TLE Epoch: 2/22/2019
Index Date Time (AQUA) AQUA Lat,Lon GOES-15 Lat,Lon Distance(km) Time Diff (sec)
1 02/23/2019 10:19:33 0.50,-130.86 -0.02,-128.32 288.31 80
2 02/25/2019 10:07:22 -0.10,-127.90 -0.02,-128.35 51.25 80
3 02/27/2019 09:55:12 -0.77,-124.95 -0.01,-128.38 390.45 80
4 02/27/2019 22:16:36 -0.37,-130.13 0.01,-128.32 205.76 80
5 03/01/2019 22:04:25 0.24,-127.17 -0.00,-128.35 133.13 80
6 03/02/2019 10:25:41 0.84,-132.33 0.01,-128.41 445.93 80
7 03/03/2019 21:52:14 0.86,-124.21 -0.00,-128.36 471.41 80
8 03/04/2019 10:13:30 0.23,-129.37 0.00,-128.43 107.83 80
9 03/06/2019 10:01:20 -0.44,-126.43 0.00,-128.45 230.08 80
10 03/06/2019 22:22:44 -0.67,-131.61 -0.00,-128.39 366.31 80




NCC Satellite Simultaneous Nadir Overpasses (SNOs) Prediction Service
